Location: Alafon
(8.4500°N, 4.2333°E)
Time: 17:27:32
(UTC+00:00)

Transit 2A - Pass Details

Date: 06 August 2021
Orbit: 595 x 964 km, 66.7° (Epoch: 18 September)

Event Time Altitude Azimuth Distance (km) Brightness Sun altitude
Rises 03:54:58 0° 217° (SW) 2,860 - -24.2°
Reaches altitude 10° 03:57:24 10° 227° (SW) 1,934 - -23.7°
Maximum altitude 04:01:15 32° 291° (WNW) 1,018 - -22.8°
Exits shadow 04:02:38 26° 327° (NNW) 1,176 6.8 -22.5°
Drops below altitude 10° 04:05:07 10° 356° (N) 1,931 8.3 -21.9°
Sets 04:07:33 0° 6° (N) 2,855 9.3 -21.3°
